FW7828 Weather Reports


time (UTC)temp
C
wind
direction
speed
KPH
gust
KPH
rain 1hr
cm
rain 24hr
cm
rain mn
cm
humidity
%
barometer
mb
20260509164451 22 181 3.2 4.8 0.00 0.00 0.00 61 1010.5
20260509163947 23 164 8.0 12.9 0.00 0.00 0.00 55 1010.6
20260509163445 23 204 6.4 9.7 0.00 0.00 0.00 61 1010.5
20260509162943 22 181 6.4 8.0 0.00 0.00 0.00 65 1010.6
20260509162443 22 168 4.8 8.0 0.00 0.00 0.00 67 1010.6
20260509161938 22 173 4.8 4.8 0.00 0.00 0.00 68 1010.8
20260509161435 21 170 3.2 4.8 0.00 0.00 0.00 70 1010.8
20260509160930 21 216 0.0 0.0 0.00 0.00 0.00 71 1010.8
20260509160426 21 186 3.2 3.2 0.00 0.00 0.00 70 1010.9
20260509155921 22 55 1.6 3.2 0.00 0.00 0.00 68 1011.3
20260509155418 22 172 4.8 8.0 0.00 0.00 0.00 67 1011.4
20260509154915 22 186 6.4 8.0 0.00 0.00 0.00 68 1011.8
20260509154411 22 163 1.6 3.2 0.00 0.00 0.00 66 1011.8
20260509153908 22 172 6.4 8.0 0.00 0.00 0.00 67 1012.0
20260509153405 22 145 3.2 4.8 0.00 0.00 0.00 69 1012.1
20260509152902 22 172 3.2 4.8 0.00 0.00 0.00 70 1011.8
20260509152358 22 291 3.2 3.2 0.00 0.00 0.00 70 1012.4
20260509151855 21 309 0.0 1.6 0.00 0.00 0.00 74 1012.4
20260509151351 22 180 4.8 4.8 0.00 0.00 0.00 73 1012.3
20260509150850 22 243 3.2 3.2 0.00 0.00 0.00 73 1012.6
20260509150347 21 327 3.2 3.2 0.00 0.00 0.00 74 1012.5
20260509145845 21 334 0.0 0.0 0.00 0.00 0.00 74 1012.4
20260509145344 21 200 0.0 0.0 0.00 0.00 0.00 75 1012.5
20260509144841 21 15 1.6 1.6 0.00 0.00 0.00 75 1012.6
20260509144338 21 161 1.6 4.8 0.00 0.00 0.00 77 1012.4
20260509143835 21 151 3.2 3.2 0.00 0.00 0.00 77 1012.7
20260509143333 21 127 0.0 1.6 0.00 0.00 0.00 78 1012.9
20260509142829 20 155 1.6 1.6 0.00 0.00 0.00 80 1012.7
20260509142325 20 132 3.2 3.2 0.00 0.00 0.00 80 1012.7
20260509141821 21 221 0.0 1.6 0.00 0.00 0.00 79 1012.6
20260509141318 21 165 1.6 3.2 0.00 0.00 0.00 76 1012.6
20260509140814 21 179 3.2 3.2 0.00 0.00 0.00 75 1012.6
20260509140311 21 74 0.0 0.0 0.00 0.00 0.00 76 1012.4
20260509135809 21 169 0.0 1.6 0.00 0.00 0.00 78 1012.4
20260509135306 21 193 0.0 1.6 0.00 0.00 0.00 77 1012.4
20260509134804 20 109 1.6 1.6 0.00 0.00 0.00 79 1012.3
20260509134301 20 109 1.6 3.2 0.00 0.00 0.00 80 1012.5
20260509133758 20 257 0.0 0.0 0.00 0.00 0.00 81 1012.5
20260509133254 19 155 3.2 3.2 0.00 0.00 0.00 81 1012.5
20260509132753 19 163 1.6 1.6 0.00 0.00 0.00 81 1012.6
20260509132252 19 167 0.0 1.6 0.00 0.00 0.00 81 1012.7
20260509131748 19 266 0.0 0.0 0.00 0.00 0.00 81 1012.9
20260509131244 18 230 1.6 1.6 0.00 0.00 0.00 83 1012.8
20260509130741 18 169 1.6 1.6 0.00 0.00 0.00 82 1012.9
20260509130236 18 171 1.6 1.6 0.00 0.00 0.00 82 1012.9
20260509125733 18 220 1.6 1.6 0.00 0.00 0.00 83 1012.7
20260509125230 18 119 0.0 1.6 0.00 0.00 0.00 83 1012.7
20260509124726 18 112 1.6 1.6 0.00 0.00 0.00 84 1012.9
20260509124223 18 123 0.0 0.0 0.00 0.00 0.00 85 1013.0
20260509123722 17 117 0.0 0.0 0.00 0.00 0.00 85 1013.0
20260509123219 17 115 1.6 1.6 0.00 0.00 0.00 87 1012.9
20260509122714 17 127 1.6 1.6 0.00 0.00 0.00 90 1012.8
20260509122211 16 100 1.6 1.6 0.00 0.00 0.00 94 1012.9
20260509121707 16 76 0.0 0.0 0.00 0.00 0.00 95 1012.9
20260509121205 16 324 0.0 0.0 0.00 0.00 0.00 96 1012.8
20260509120703 16 323 0.0 0.0 0.00 0.00 0.00 96 1013.1
20260509120201 15 323 0.0 0.0 0.00 0.00 0.00 96 1013.0
20260509115658 15 322 0.0 0.0 0.00 0.00 0.00 96 1012.8
20260509115156 15 322 1.6 1.6 0.00 0.00 0.00 96 1013.2
20260509114654 14 343 0.0 0.0 0.00 0.00 0.00 96 1012.8
20260509114152 14 343 0.0 0.0 0.00 0.00 0.00 96 1012.9
20260509113650 14 343 0.0 0.0 0.00 0.00 0.00 96 1012.9
20260509113147 13 0 0.0 0.0 0.00 0.00 0.00 96 1012.8
20260509112644 13 323 1.6 1.6 0.00 0.00 0.00 96 1012.8
20260509112141 13 346 0.0 1.6 0.00 0.00 0.00 96 1012.9
20260509111638 13 318 1.6 3.2 0.00 0.00 0.00 95 1013.1
20260509111135 13 1 0.0 0.0 0.00 0.00 0.00 96 1013.0
20260509110632 13 350 0.0 0.0 0.00 0.00 0.00 96 1012.9
20260509110129 13 350 0.0 0.0 0.00 0.00 0.00 95 1013.0
20260509105627 13 350 0.0 0.0 0.00 0.00 0.00 95 1013.2
20260509105124 13 350 0.0 0.0 0.00 0.00 0.00 95 1012.7
20260509104621 13 350 0.0 0.0 0.00 0.00 0.00 95 1013.1
20260509104117 13 350 0.0 0.0 0.00 0.00 0.00 95 1013.0
20260509103615 12 350 0.0 0.0 0.00 0.00 0.00 95 1013.1
20260509103114 12 350 0.0 0.0 0.00 0.00 0.00 95 1013.0
20260509102610 12 350 1.6 1.6 0.00 0.00 0.00 95 1013.1
20260509102107 12 350 1.6 1.6 0.00 0.00 0.00 95 1013.1
20260509101604 12 350 0.0 0.0 0.00 0.00 0.00 95 1013.0
20260509101101 12 350 0.0 0.0 0.00 0.00 0.00 95 1012.9
20260509100558 12 351 0.0 0.0 0.00 0.00 0.00 95 1012.7
20260509100055 12 350 0.0 1.6 0.00 0.00 0.00 95 1012.8
20260509095551 12 350 0.0 0.0 0.00 0.00 0.00 95 1012.7
20260509095049 12 350 0.0 0.0 0.00 0.00 0.00 95 1012.8
20260509094545 12 350 0.0 0.0 0.00 0.00 0.00 95 1012.6
20260509094043 12 350 0.0 0.0 0.00 0.00 0.00 95 1012.8
20260509093541 12 350 0.0 0.0 0.00 0.00 0.00 95 1012.8
20260509093038 12 350 0.0 0.0 0.00 0.00 0.00 95 1012.8
20260509092536 12 350 0.0 0.0 0.00 0.00 0.00 95 1013.0
20260509092035 12 350 0.0 0.0 0.00 0.00 0.00 95 1013.2
20260509091531 12 350 0.0 0.0 0.00 0.00 0.00 95 1013.1
20260509091028 12 350 0.0 0.0 0.00 0.00 0.00 95 1013.4
20260509090525 12 350 0.0 0.0 0.00 0.00 0.00 95 1013.3
20260509090023 12 350 0.0 0.0 0.00 0.00 0.00 95 1013.2
20260509085520 12 350 0.0 0.0 0.00 0.00 0.00 95 1013.4
20260509085015 12 350 0.0 0.0 0.00 0.00 0.00 95 1013.3
20260509084513 12 350 0.0 0.0 0.00 0.00 0.00 95 1013.5
20260509084010 12 350 0.0 0.0 0.00 0.00 0.00 94 1013.6
20260509083507 12 350 0.0 0.0 0.00 0.00 0.00 94 1013.4
20260509083004 12 350 0.0 0.0 0.00 0.00 0.00 94 1013.5
20260509082501 12 350 0.0 0.0 0.00 0.00 0.00 94 1013.3
20260509081958 12 350 0.0 0.0 0.00 0.00 0.00 94 1013.2
20260509081455 12 350 0.0 0.0 0.00 0.00 0.00 94 1013.6
20260509080952 13 350 0.0 0.0 0.00 0.00 0.00 94 1013.6
20260509080450 12 350 0.0 0.0 0.00 0.00 0.00 94 1013.6
20260509075948 13 350 0.0 0.0 0.00 0.00 0.00 94 1013.5
20260509075445 13 350 0.0 0.0 0.00 0.00 0.00 94 1013.4
20260509074943 13 350 0.0 0.0 0.00 0.00 0.00 94 1013.6
20260509074440 13 350 0.0 0.0 0.00 0.00 0.00 94 1013.6
20260509073936 13 350 0.0 0.0 0.00 0.00 0.00 94 1013.6
20260509073433 13 350 0.0 0.0 0.00 0.00 0.00 94 1013.5
20260509072929 12 350 0.0 0.0 0.00 0.00 0.00 93 1013.3
20260509072426 12 350 0.0 0.0 0.00 0.00 0.00 93 1013.6
20260509071923 12 350 0.0 0.0 0.00 0.00 0.00 93 1013.5
20260509071420 12 350 0.0 0.0 0.00 0.00 0.00 93 1013.7
20260509070917 13 350 0.0 0.0 0.00 0.00 0.00 93 1013.6
20260509070414 13 350 0.0 0.0 0.00 0.00 0.00 93 1013.8
20260509065909 13 350 0.0 0.0 0.00 0.00 0.00 93 1013.8
20260509065406 13 350 0.0 0.0 0.00 0.00 0.00 93 1014.0
20260509064902 13 350 0.0 0.0 0.00 0.00 0.00 93 1013.9
20260509064400 13 350 0.0 0.0 0.00 0.00 0.00 93 1014.0
20260509063857 13 350 0.0 0.0 0.00 0.00 0.00 93 1014.1
20260509063353 13 350 0.0 0.0 0.00 0.00 0.00 93 1014.1
20260509062850 13 350 0.0 0.0 0.00 0.00 0.00 93 1014.1
20260509062347 13 350 0.0 0.0 0.00 0.00 0.00 93 1013.9
20260509061844 13 350 0.0 0.0 0.00 0.00 0.00 92 1014.1
20260509061343 13 350 0.0 0.0 0.00 0.00 0.00 92 1014.3
20260509060839 13 350 0.0 0.0 0.00 0.00 0.00 92 1014.3
20260509060336 13 350 0.0 0.0 0.00 0.00 0.00 92 1014.4
20260509055831 13 350 0.0 0.0 0.00 0.00 0.00 92 1014.7
20260509055327 13 350 0.0 0.0 0.00 0.00 0.00 92 1014.7
20260509054825 13 350 0.0 0.0 0.00 0.00 0.00 92 1014.5
20260509054321 13 350 0.0 0.0 0.00 0.00 0.00 92 1014.6
20260509053820 13 350 0.0 0.0 0.00 0.00 0.00 92 1014.7
20260509053316 13 350 0.0 0.0 0.00 0.00 0.00 92 1014.6
20260509052814 13 350 0.0 0.0 0.00 0.00 0.00 92 1014.6
20260509052312 13 350 0.0 0.0 0.00 0.00 0.00 92 1014.7
20260509051809 13 350 0.0 0.0 0.00 0.00 0.00 92 1015.0
20260509051307 13 350 0.0 0.0 0.00 0.00 0.00 92 1014.9
20260509050803 13 350 0.0 0.0 0.00 0.00 0.00 92 1014.7
20260509050300 13 350 0.0 0.0 0.00 0.00 0.00 91 1014.8
20260509045757 13 350 0.0 1.6 0.00 0.00 0.00 91 1014.8
20260509045254 13 350 0.0 1.6 0.00 0.00 0.00 91 1014.9
20260509044751 13 350 0.0 0.0 0.00 0.00 0.00 91 1014.6
20260509044249 12 350 0.0 0.0 0.00 0.00 0.00 90 1014.9
20260509043745 12 350 0.0 0.0 0.00 0.00 0.00 90 1014.9
20260509043241 13 350 0.0 0.0 0.00 0.00 0.00 90 1014.8
20260509042737 13 350 0.0 0.0 0.00 0.00 0.00 90 1014.9
20260509042234 13 350 0.0 0.0 0.00 0.00 0.00 90 1014.8
20260509041731 13 350 0.0 0.0 0.00 0.00 0.00 89 1015.3
20260509041228 13 350 0.0 0.0 0.00 0.00 0.00 89 1014.9
20260509040726 13 350 0.0 0.0 0.00 0.00 0.00 89 1015.0
20260509040223 13 350 0.0 0.0 0.00 0.00 0.00 89 1014.8
20260509035719 13 350 0.0 0.0 0.00 0.00 0.00 89 1014.8
20260509035216 13 350 0.0 0.0 0.00 0.00 0.00 89 1015.1
20260509034713 13 350 0.0 0.0 0.00 0.00 0.00 89 1015.0
20260509034211 13 350 0.0 0.0 0.00 0.00 0.00 88 1015.0
20260509033708 13 350 0.0 0.0 0.00 0.00 0.00 88 1015.4
20260509033205 13 350 0.0 0.0 0.00 0.00 0.00 88 1015.3
20260509032702 13 350 0.0 0.0 0.00 0.00 0.00 88 1015.3
20260509032159 13 350 0.0 1.6 0.00 0.00 0.00 88 1015.1
20260509031656 13 352 0.0 0.0 0.00 0.00 0.00 88 1015.2
20260509031154 13 352 0.0 0.0 0.00 0.00 0.00 88 1015.3
20260509030652 13 352 0.0 0.0 0.00 0.00 0.00 87 1015.0
20260509030149 13 20 0.0 0.0 0.00 0.00 0.00 87 1015.3
20260509025645 13 20 0.0 0.0 0.00 0.00 0.00 87 1015.0
20260509025141 13 26 0.0 0.0 0.00 0.00 0.00 87 1015.4
20260509024636 13 28 0.0 0.0 0.00 0.00 0.00 86 1015.2
20260509024132 13 31 0.0 0.0 0.00 0.00 0.00 86 1015.3
20260509023631 13 32 0.0 0.0 0.00 0.00 0.00 86 1015.1
20260509023127 14 32 0.0 0.0 0.00 0.00 0.00 85 1015.6
20260509022623 14 22 0.0 0.0 0.00 0.00 0.00 85 1015.4
20260509022122 15 9 0.0 0.0 0.00 0.00 0.00 85 1015.5
20260509021618 15 9 0.0 0.0 0.00 0.00 0.00 84 1015.5
20260509021115 15 31 0.0 0.0 0.00 0.00 0.00 84 1015.4
20260509020613 15 53 0.0 0.0 0.00 0.00 0.00 84 1015.3
20260509020110 15 53 0.0 0.0 0.00 0.00 0.00 83 1015.6
20260509015609 15 53 0.0 0.0 0.00 0.00 0.00 82 1015.5
20260509015106 15 64 0.0 0.0 0.00 0.00 0.00 81 1015.4
20260509014602 15 64 0.0 0.0 0.00 0.00 0.00 80 1015.2
20260509014059 16 99 0.0 0.0 0.00 0.00 0.00 79 1015.2
20260509013556 16 110 0.0 0.0 0.00 0.00 0.00 79 1015.1
20260509013051 16 132 1.6 1.6 0.00 0.00 0.00 79 1015.1
20260509012548 16 131 3.2 3.2 0.00 0.00 0.00 78 1014.9
20260509012045 16 138 0.0 0.0 0.00 0.00 0.00 78 1014.7
20260509011543 16 134 4.8 4.8 0.00 0.00 0.00 76 1014.6
20260509011040 16 129 3.2 3.2 0.00 0.00 0.00 79 1014.5
20260509010538 16 127 3.2 3.2 0.00 0.00 0.00 79 1014.7
20260509010034 16 128 4.8 4.8 0.00 0.00 0.00 78 1014.6
20260509005532 16 132 3.2 3.2 0.00 0.00 0.00 79 1014.4
20260509005032 16 116 3.2 3.2 0.00 0.00 0.00 80 1014.6
20260509004530 17 89 1.6 1.6 0.00 0.00 0.00 79 1014.5
20260509004026 16 115 3.2 3.2 0.00 0.00 0.00 79 1014.4
20260509003525 17 105 0.0 0.0 0.00 0.00 0.00 79 1014.3
20260509003022 17 162 1.6 1.6 0.00 0.00 0.00 77 1014.4
20260509002519 17 151 1.6 3.2 0.00 0.00 0.00 77 1014.0
20260509002016 17 177 0.0 0.0 0.00 0.00 0.00 76 1014.3
20260509001514 17 171 1.6 3.2 0.00 0.00 0.00 75 1014.3
20260509001010 17 162 0.0 1.6 0.00 0.00 0.00 75 1014.2
20260509000508 17 170 0.0 1.6 0.00 0.00 0.00 75 1014.3
20260509000003 17 164 3.2 4.8 0.00 0.00 0.00 74 1014.1
20260508235502 18 212 3.2 3.2 0.00 0.00 0.00 74 1014.3
20260508234958 18 159 1.6 3.2 0.00 0.00 0.00 75 1013.9
20260508234455 18 167 1.6 3.2 0.00 0.00 0.00 74 1013.9
20260508233952 18 158 3.2 3.2 0.00 0.00 0.00 74 1013.9
20260508233452 18 279 1.6 3.2 0.00 0.00 0.00 74 1014.1
20260508232948 18 161 3.2 3.2 0.00 0.00 0.00 74 1014.0
20260508232445 18 161 1.6 1.6 0.00 0.00 0.00 73 1013.9
20260508231942 18 145 1.6 1.6 0.00 0.00 0.00 73 1013.8
20260508231440 18 138 3.2 3.2 0.00 0.00 0.00 75 1013.8
20260508230936 17 233 0.0 0.0 0.00 0.00 0.00 74 1013.5
20260508230433 17 29 0.0 0.0 0.00 0.00 0.00 72 1013.4
20260508225930 17 350 0.0 0.0 0.00 0.00 0.00 71 1013.5
20260508225427 17 38 0.0 0.0 0.00 0.00 0.00 71 1013.4
20260508224924 17 40 0.0 1.6 0.00 0.00 0.00 70 1013.6
20260508224422 17 22 0.0 0.0 0.00 0.00 0.00 70 1013.7
20260508223919 17 39 0.0 0.0 0.00 0.00 0.00 69 1013.5
20260508223417 17 52 0.0 0.0 0.00 0.00 0.00 70 1013.4
20260508222913 17 51 0.0 1.6 0.00 0.00 0.00 69 1013.5
20260508222411 17 32 0.0 0.0 0.00 0.00 0.00 67 1013.6
20260508221907 18 34 1.6 1.6 0.00 0.00 0.00 68 1013.4
20260508221403 18 358 1.6 1.6 0.00 0.00 0.00 68 1013.5
20260508220859 18 49 1.6 1.6 0.00 0.00 0.00 66 1013.5
20260508220356 18 14 0.0 1.6 0.00 0.00 0.00 64 1013.6
20260508215853 18 48 0.0 1.6 0.00 0.00 0.00 65 1013.6
20260508215349 18 37 1.6 1.6 0.00 0.00 0.00 66 1013.8
20260508214846 18 88 1.6 1.6 0.00 0.00 0.00 64 1014.1
20260508214344 18 12 1.6 1.6 0.00 0.00 0.00 62 1014.1
20260508213840 18 76 1.6 3.2 0.00 0.00 0.00 63 1013.9
20260508213337 18 39 0.0 0.0 0.00 0.00 0.00 62 1013.9
20260508212833 19 19 0.0 0.0 0.00 0.00 0.00 64 1013.9
20260508212329 19 38 1.6 1.6 0.00 0.00 0.00 58 1014.0
20260508211825 19 113 0.0 1.6 0.00 0.00 0.00 57 1013.9
20260508211321 18 283 1.6 1.6 0.00 0.00 0.00 59 1013.8
20260508210819 19 132 3.2 3.2 0.00 0.00 0.00 57 1013.7
20260508210315 19 161 0.0 0.0 0.00 0.00 0.00 55 1013.7
20260508205812 19 121 1.6 3.2 0.00 0.00 0.00 58 1013.7
20260508205308 20 122 3.2 3.2 0.00 0.00 0.00 55 1013.6
20260508204805 20 84 3.2 3.2 0.00 0.00 0.00 56 1013.7
20260508204302 20 99 0.0 0.0 0.00 0.00 0.00 54 1013.8
20260508203758 20 99 3.2 3.2 0.00 0.00 0.00 53 1013.9
20260508203254 20 89 1.6 3.2 0.00 0.00 0.00 54 1013.6
20260508202750 20 113 1.6 1.6 0.00 0.00 0.00 53 1014.1
20260508202247 20 126 3.2 3.2 0.00 0.00 0.00 53 1014.1
20260508201745 20 138 3.2 3.2 0.00 0.00 0.00 53 1014.2
20260508201241 20 108 3.2 3.2 0.00 0.00 0.00 52 1014.3
20260508200738 20 121 1.6 1.6 0.00 0.00 0.00 53 1014.4
20260508200234 20 116 3.2 4.8 0.00 0.00 0.00 55 1014.4
20260508195730 20 94 3.2 3.2 0.00 0.00 0.00 53 1014.4
20260508195227 21 79 0.0 1.6 0.00 0.00 0.00 52 1014.4
20260508194724 20 104 3.2 3.2 0.00 0.00 0.00 56 1014.6
20260508194221 20 75 3.2 3.2 0.00 0.00 0.00 55 1014.4
20260508193717 20 97 1.6 3.2 0.00 0.00 0.00 56 1014.8
20260508193214 20 97 3.2 3.2 0.00 0.00 0.00 57 1014.8
20260508192711 20 73 1.6 1.6 0.00 0.00 0.00 57 1015.0
20260508192208 20 135 3.2 3.2 0.00 0.00 0.00 62 1014.9
20260508191705 20 129 4.8 4.8 0.00 0.00 0.00 59 1015.0
20260508191202 19 96 3.2 3.2 0.00 0.00 0.00 56 1014.8
20260508190659 19 82 3.2 3.2 0.00 0.00 0.00 58 1015.3
20260508190155 20 78 1.6 3.2 0.00 0.00 0.00 54 1015.2
20260508185652 20 136 1.6 1.6 0.00 0.00 0.00 57 1015.3
20260508185149 20 114 3.2 3.2 0.00 0.00 0.00 60 1015.3
20260508184646 20 92 3.2 3.2 0.00 0.00 0.00 60 1015.3
20260508184144 20 96 1.6 3.2 0.00 0.00 0.00 62 1015.3
20260508183641 19 145 4.8 8.0 0.00 0.00 0.00 61 1015.5
20260508183136 18 116 3.2 3.2 0.00 0.00 0.00 63 1015.5
20260508182633 19 139 3.2 3.2 0.00 0.00 0.00 61 1015.5
20260508182130 19 117 4.8 4.8 0.00 0.00 0.00 60 1015.7
20260508181625 19 91 4.8 4.8 0.00 0.00 0.00 61 1015.6
20260508181123 18 125 4.8 8.0 0.00 0.00 0.00 59 1015.7
20260508180619 20 110 1.6 3.2 0.00 0.00 0.00 60 1015.9
20260508180115 19 96 3.2 3.2 0.00 0.00 0.00 60 1015.4
20260508175612 18 114 4.8 4.8 0.00 0.00 0.00 60 1015.7
20260508175109 19 118 1.6 1.6 0.00 0.00 0.00 61 1015.7
20260508174607 19 131 4.8 4.8 0.00 0.00 0.00 59 1015.6
20260508174104 20 99 3.2 3.2 0.00 0.00 0.00 60 1015.8
20260508173601 20 127 3.2 3.2 0.00 0.00 0.00 62 1015.7
20260508173056 19 114 1.6 3.2 0.00 0.00 0.00 63 1015.8
20260508172554 19 94 3.2 3.2 0.00 0.00 0.00 61 1016.0
20260508172050 19 90 1.6 4.8 0.00 0.00 0.00 64 1015.7
20260508171547 18 82 3.2 3.2 0.00 0.00 0.00 65 1016.0
20260508171043 18 74 3.2 4.8 0.00 0.00 0.00 63 1015.9
20260508170541 18 75 3.2 3.2 0.00 0.00 0.00 66 1015.9
20260508170038 18 76 4.8 4.8 0.00 0.00 0.00 65 1015.9
20260508165535 18 111 4.8 4.8 0.00 0.00 0.00 67 1016.0
20260508165032 18 121 4.8 4.8 0.00 0.00 0.00 67 1016.3